Weather History for Palm Springs, CA

Change the Weather History Date:

Thursday, December 6, 2012

  Actual Average Record
Temperature  
Mean Temperature 69 °F 57 °F  
Max Temperature 82 °F 68 °F 91 °F (1938)
Min Temperature 55 °F 45 °F 30 °F (1953)
Degree Days  
Heating Degree Days 0 9  
Month to date heating degree days 0 47  
Since 1 July heating degree days 35 143  
Cooling Degree Days 4 0  
Month to date cooling degree days 16 0  
Year to date cooling degree days 4721 4137  
Growing Degree Days 19 (Base 50)    
Moisture  
Dew Point 41 °F    
Average Humidity 37    
Maximum Humidity 51    
Minimum Humidity 23    
Precipitation  
Precipitation 0.00 in 0.01 in 0.66 in (1966)
Month to date precipitation 0.00 0.09  
Year to date precipitation 1.82 4.95  
Since 1 July precipitation 1.03 2.01  
Snow  
Snow 0.00 in - - ()
Month to date snowfall 0.0  
Year to date snowfall 0.0  
Since 1 July snowfall 0.0  
Snow Depth 0.00 in    
Sea Level Pressure  
Sea Level Pressure 29.86 in    
Wind  
Wind Speed 2 mph (West)    
Max Wind Speed 9 mph    
Max Gust Speed 22 mph    
Visibility 10 miles    
Events      
T = Trace of Precipitation, MM = Missing Value Source: NWS Daily Summary

Daily Weather History Graph

Daily Weather History Graph

Search for Another Location

Airport:

Trip Planner

Search our weather history database for the weather conditions in past years. The results will help you decide how hot, cold, wet, or windy it might be!

Date:

Astronomy

Dec. 06, 2012 Rise Set
Actual Time 6:37 AM PST 4:37 PM PST
Civil Twilight 6:10 AM PST 5:04 PM PST
Nautical Twilight 5:39 AM PST 5:35 PM PST
Astronomical Twilight 5:08 AM PST 6:05 PM PST
Moon No Moon Rise 11:48 AM PST (12/6)
Length of Visible Light 10h 54m
Length of Day
9h 59m
Waning Gibbous, 48% of the Moon is Illuminated
Dec 6
Waning Gibbous
Dec 13
New
Dec 19
First Quarter
Dec 28
Full
Jan 4
Last Quarter

Hourly Weather History & Observations

Time (PST) Temp. Dew Point Humidity Pressure Visibility Wind Dir Wind Speed Gust Speed Precip Events Conditions
12:53 AM 60.1 °F 34.0 °F 38% 29.90 in 10.0 mi Calm Calm - N/A   Clear
1:53 AM 59.0 °F 37.0 °F 44% 29.89 in 10.0 mi NNW 5.8 mph - N/A   Clear
2:53 AM 57.0 °F 37.9 °F 49% 29.88 in 10.0 mi NNW 3.5 mph - N/A   Clear
3:53 AM 61.0 °F 34.0 °F 36% 29.86 in 10.0 mi Calm Calm - N/A   Clear
4:53 AM 59.0 °F 37.9 °F 46% 29.86 in 10.0 mi Calm Calm - N/A   Clear
5:53 AM 59.0 °F 37.9 °F 46% 29.87 in 10.0 mi West 3.5 mph - N/A   Mostly Cloudy
6:53 AM 57.0 °F 39.9 °F 53% 29.88 in 10.0 mi SSW 3.5 mph - N/A   Clear
7:53 AM 60.1 °F 39.0 °F 46% 29.90 in 10.0 mi Calm Calm - N/A   Mostly Cloudy
8:53 AM 68.0 °F 37.0 °F 32% 29.92 in 10.0 mi Calm Calm - N/A   Clear
9:53 AM 71.1 °F 42.1 °F 35% 29.91 in 10.0 mi SW 3.5 mph - N/A   Clear
10:53 AM 75.0 °F 39.0 °F 27% 29.90 in 10.0 mi SE 3.5 mph - N/A   Scattered Clouds
11:53 AM 78.1 °F 37.9 °F 24% 29.85 in 10.0 mi Calm Calm - N/A   Scattered Clouds
12:53 PM 79.0 °F 39.9 °F 25% 29.82 in 10.0 mi South 3.5 mph - N/A   Scattered Clouds
1:53 PM 81.0 °F 41.0 °F 24% 29.79 in 10.0 mi Variable 3.5 mph - N/A   Clear
2:53 PM 81.0 °F 41.0 °F 24% 29.78 in 10.0 mi Calm Calm - N/A   Partly Cloudy
3:53 PM 80.1 °F 42.1 °F 26% 29.79 in 10.0 mi SE 3.5 mph - N/A   Clear
4:53 PM 75.0 °F 46.0 °F 36% 29.80 in 10.0 mi NNW 8.1 mph - N/A   Partly Cloudy
6:53 PM 69.1 °F 46.0 °F 44% 29.85 in 10.0 mi SSW 3.5 mph - N/A   Clear
7:53 PM 70.0 °F 46.0 °F 42% 29.86 in 10.0 mi Calm Calm - N/A   Clear
8:53 PM 66.9 °F 48.0 °F 51% 29.87 in 10.0 mi NNW 4.6 mph - N/A   Clear
9:53 PM 63.0 °F 48.0 °F 58% 29.88 in 10.0 mi Calm Calm - N/A   Clear
10:53 PM 64.0 °F 48.0 °F 56% 29.87 in 10.0 mi NNW 5.8 mph - N/A   Clear
11:53 PM 64.0 °F 48.0 °F 56% 29.87 in 10.0 mi WNW 3.5 mph - N/A   Clear